RH
20 25 30 27 26 23 22 26 27 29 30 44 52 62 68 73 80 75 74 64 57 50 39 35 35 38 46 49 51 52 52 46 42 41 40 41 43 45 46 47 49 52 53 55
26 34 26 23 24 26 28 30 31 35 31 34 59 61 64 69 72 69 65 57 51 45 37 35 39 43 48 46 50 47 43 38 37 38 39 42 45 52 60 65 68 69 70 69
27 23 22 25 27 30 30 32 34 37 33 50 60 64 61 55 56 61 65 54 50 43 34 38 41 43 39 38 37 34 35 37 36 34 38 50 56 49 34 32 36 49 68 79
26 22 24 27 28 24 26 24 34 38 41 53 46 65 59 61 54 46 48 49 48 40 38 37 34 33 32 30 33 34 36 35 34 40 54 59 59 47 38 31 39 50 64 72
27 25 24 25 23 22 27 22 36 39 43 37 36 46 51 58 55 54 46 36 34 36 32 28 28 30 32 33 34 34 35 34 36 50 55 60 62 53 48 39 40 56 58 47
25 20 21 22 22 24 23 27 41 48 46 54 42 49 65 71 63 43 35 37 36 33 29 31 33 34 34 34 34 35 36 37 48 54 54 55 74 65 55 50 48 54 52 58
29 29 26 22 26 26 32 40 54 61 73 68 46 65 73 80 66 40 61 52 52 51 38 35 50 36 33 33 35 37 40 46 53 56 54 60 75 65 58 55 59 62 65 67
40 40 31 28 29 31 33 39 66 56 72 74 55 77 86 84 84 78 70 68 68 75 60 41 34 32 32 33 36 39 48 52 55 56 55 68 68 59 53 62 68 73 80 83
46 41 34 32 30 30 36 43 39 52 64 72 76 89 72 85 86 82 86 79 82 84 43 32 32 31 32 34 38 48 51 56 56 51 61 72 64 59 65 73 77 82 83 91
36 42 31 37 35 36 38 44 58 71 67 81 77 81 95 81 84 78 73 63 52 38 32 32 32 32 32 36 45 49 55 58 54 55 62 73 78 76 78 81 78 82 84 92
46 44 38 46 65 68 70 79 77 76 90 86 90 89 87 82 67 67 66 65 61 33 33 33 32 31 32 39 45 51 58 56 60 56 58 76 75 84 85 85 90 99 99 96
48 60 62 63 57 58 64 79 84 95 93 98 97 97 92 84 68 61 63 51 36 32 32 30 29 31 36 41 47 54 54 58 64 54 64 73 86 89 85 93 99 100 97 95
36 57 64 54 53 51 74 71 85 94 97 96 96 96 79 75 63 57 50 37 35 31 30 29 31 36 39 43 50 49 52 64 62 56 56 56 84 96 92 93 98 96 93 89
48 66 61 73 72 69 77 80 77 86 94 89 97 99 78 63 51 41 36 34 33 30 29 31 32 35 40 45 48 51 56 66 59 59 53 63 91 100 90 96 99 96 99 93
51 71 74 71 70 71 80 91 85 77 71 83 100 93 64 53 46 37 33 33 31 30 32 34 35 40 43 47 53 57 60 63 63 59 53 87 90 91 92 94 97 91 93 87
53 76 67 78 66 69 77 76 76 77 76 84 79 87 52 40 38 41 45 43 33 33 37 43 43 46 50 55 59 60 63 65 66 63 55 100 98 89 89 87 91 98 98 82
57 69 72 79 69 60 76 70 71 62 59 60 73 79 46 44 39 40 43 39 38 45 49 47 50 58 60 63 64 67 71 75 76 70 66 98 98 92 88 87 88 98 99 89
60 70 78 90 65 78 64 54 56 63 62 66 70 63 54 48 53 55 47 53 59 55 54 61 68 74 78 79 76 79 86 92 89 70 80 98 98 93 95 99 98 95 99 92
52 72 84 86 88 62 53 52 59 60 78 68 71 73 70 62 57 92 88 86 87 88 91 89 91 93 96 99 100 100 99 98 89 80 87 97 98 97 98 99 99 99 100 92
65 66 77 91 78 89 60 49 47 51 86 62 57 68 75 60 68 90 94 89 86 81 87 88 93 98 99 95 99 100 100 98 98 88 93 98 99 95 98 97 97 99 99 96
74 83 83 96 87 79 56 44 51 74 78 62 58 48 56 91 85 95 91 83 92 88 85 90 99 100 99 100 100 99 96 99 99 98 94 96 99 100 99 98 99 99 97 97
72 82 88 86 81 78 53 50 58 66 58 50 60 74 83 88 88 75 92 81 85 79 79 83 94 93 99 98 100 100 99 100 100 95 88 90 98 99 98 96 95 99 93 94
78 74 85 76 78 60 62 62 57 51 58 79 71 76 68 68 82 94 84 75 78 76 70 98 100 100 99 98 98 100 100 99 100 98 98 99 93 93 93 88 91 91 89 90
72 63 82 74 67 66 52 54 55 53 66 63 65 68 67 80 78 87 83 66 58 54 54 64 95 100 100 98 99 100 100 95 94 80 98 100 98 95 98 100 98 98 95 90
73 62 74 80 69 64 68 60 58 61 64 61 61 63 68 70 85 84 74 71 70 58 54 56 75 100 100 96 98 99 100 100 99 98 98 89 100 96 95 98 100 100 100 98
66 75 83 88 66 66 73 64 59 57 59 63 67 78 79 76 76 67 76 78 74 65 62 65 72 98 100 100 99 100 100 100 100 97 95 99 100 100 98 94 95 99 99 98
Wind_Speed
3 2 5 7 6 2 2 4 6 4 5 5 9 6 15 23 22 19 23 26 30 24 21 15 12 12 11 10 9 7 7 4 3 3 5 7 8 9 12 14 16 17 17 17
4 5 10 6 6 6 6 5 8 4 2 4 5 6 3 11 24 25 29 33 30 24 20 17 15 13 12 9 9 8 5 2 5 10 13 14 15 17 19 20 20 20 21 21
5 10 5 3 6 6 6 6 5 7 4 5 6 4 3 4 10 21 24 35 30 27 23 17 14 14 12 11 7 2 3 7 12 14 14 14 18 20 23 24 24 23 22 21
5 7 7 8 5 3 3 3 4 3 3 4 4 4 6 7 6 8 19 27 31 26 22 21 19 16 13 8 3 2 7 12 14 15 19 23 23 22 23 22 20 20 20 20
7 7 4 2 4 2 5 3 3 2 1 2 2 1 6 5 4 5 9 24 27 29 28 24 20 16 10 5 2 6 9 14 15 18 25 27 22 22 21 20 20 18 16 17
7 5 0 4 1 0 3 4 7 5 3 1 7 5 4 2 3 7 16 17 11 8 27 22 17 12 7 3 4 7 11 15 16 20 28 28 23 21 20 20 19 16 16 19
4 3 5 3 3 5 5 5 3 3 2 5 2 3 3 7 8 15 19 22 15 15 13 16 2 10 4 3 5 7 11 15 18 23 29 28 21 19 18 17 14 15 18 21
1 6 3 4 1 4 3 5 5 5 3 5 3 2 2 2 12 22 31 19 11 4 12 12 12 4 4 4 5 8 11 16 20 26 30 27 20 18 15 14 15 17 23 24
1 4 3 4 3 0 2 2 2 3 3 2 2 2 2 5 8 13 18 18 15 20 17 9 6 3 4 4 6 8 13 17 22 25 26 24 22 18 17 17 17 20 24 24
0 3 3 4 5 7 5 3 3 3 0 4 3 4 4 8 8 7 10 15 15 12 11 7 4 3 3 5 6 10 14 18 22 23 24 22 21 19 18 17 18 21 24 25
3 3 6 4 6 3 6 4 5 4 3 3 2 5 5 6 11 10 12 11 16 15 10 7 4 2 4 5 7 10 13 18 20 23 25 22 19 18 19 19 18 21 25 29
2 3 3 2 3 6 4 3 4 4 2 3 2 2 9 6 8 11 13 12 13 10 6 3 3 3 5 6 8 10 14 16 19 24 24 23 21 18 19 20 17 22 30 29
2 3 2 1 5 5 5 3 3 5 2 2 3 2 5 5 5 12 12 10 9 8 4 2 1 3 7 7 8 11 15 15 19 24 25 27 19 17 19 20 20 25 28 26
3 3 4 4 1 1 3 5 1 2 2 1 2 4 3 4 8 15 12 10 7 5 2 3 3 4 6 7 9 13 14 14 19 24 27 27 17 16 19 22 23 26 29 28
5 4 7 5 7 7 3 3 6 3 4 3 4 8 5 7 8 12 10 8 6 2 3 6 4 4 5 8 10 12 11 13 19 24 27 23 14 17 19 22 23 27 32 28
3 3 3 5 5 6 6 8 6 6 7 7 9 7 10 13 15 10 8 3 1 3 5 6 4 3 4 6 9 10 8 12 18 24 26 20 16 17 19 22 25 26 29 27
3 5 2 1 3 4 5 3 4 3 3 3 2 4 5 5 10 5 2 1 2 6 5 4 1 2 5 8 7 6 8 13 18 22 23 19 19 17 19 23 21 24 28 25
4 4 2 3 2 1 6 4 0 6 4 5 6 6 9 9 8 10 8 8 9 8 7 4 4 6 8 10 9 8 11 13 19 21 24 20 18 17 20 24 25 21 26 24
3 4 4 3 2 4 6 3 5 3 2 1 3 4 7 7 14 16 12 11 10 8 6 6 8 11 12 12 11 9 8 13 21 21 25 21 19 18 20 23 26 27 24 24
6 6 4 2 2 5 5 4 6 4 1 3 4 6 9 3 2 2 6 7 7 7 7 8 10 12 16 16 11 10 10 15 19 24 26 20 21 18 18 21 23 23 23 24
2 3 4 1 2 5 5 3 4 1 4 4 2 8 9 5 6 8 5 6 5 7 8 8 11 14 16 17 12 13 14 14 16 22 23 23 21 18 15 20 22 20 23 18
4 4 2 2 2 4 1 4 1 4 6 11 13 13 21 16 10 6 6 6 7 10 11 11 13 12 15 15 14 14 14 12 16 19 21 23 21 19 20 22 21 18 20 16
1 5 4 4 4 3 13 16 13 13 14 15 19 13 9 11 9 8 10 11 11 11 12 11 13 14 14 17 18 20 21 12 15 16 20 23 22 21 22 24 24 24 21 19
4 4 4 3 4 10 21 18 19 17 19 13 9 10 10 15 14 12 12 13 14 14 15 13 12 16 15 15 17 18 21 14 14 17 16 19 20 21 23 25 25 26 27 23
3 5 5 3 9 20 17 20 19 19 12 14 15 15 15 14 13 11 12 13 15 15 15 14 12 14 16 16 16 16 18 22 19 22 22 20 19 21 21 21 22 23 23 21
6 6 4 4 10 15 15 19 17 18 16 15 17 16 14 12 12 11 12 12 14 15 15 16 12 15 16 17 18 17 14 17 18 20 21 22 22 22 23 23 22 22 23 24
Wind_Direction
264 47 248 248 239 244 288 216 233 250 231 146 203 168 187 188 201 212 210 197 187 187 181 179 187 191 186 192 211 228 229 195 224 261 289 297 306 294 293 291 290 288 285 284
2 267 251 223 243 250 254 254 266 274 238 146 156 219 177 186 206 205 200 192 196 189 177 182 189 190 185 188 190 179 193 254 321 328 331 328 321 316 313 306 300 295 292 286
188 251 338 259 277 256 246 211 235 211 159 40 114 343 204 220 223 221 209 198 198 194 180 181 172 165 171 166 160 162 339 340 342 338 334 325 321 320 318 312 310 307 303 297
245 279 250 272 278 209 240 235 205 174 148 218 174 242 236 216 214 190 195 202 200 184 177 164 164 163 165 161 150 348 346 348 346 345 340 331 327 328 330 327 323 318 317 317
259 290 287 224 233 308 238 65 145 171 129 57 188 109 259 152 186 212 192 188 185 173 164 157 156 158 163 144 55 353 349 346 347 345 343 338 328 328 329 327 323 323 328 331
244 266 203 218 109 62 129 68 33 35 59 357 251 163 296 315 346 118 88 73 50 143 146 144 150 151 146 106 14 354 351 349 349 345 346 341 332 328 325 323 325 329 335 338
321 327 312 131 54 4 69 65 318 328 359 223 293 78 245 338 339 131 106 107 124 139 135 129 174 175 103 20 2 357 349 348 348 347 348 346 337 332 326 327 332 336 335 338
202 319 3 2 134 222 186 160 159 231 238 264 344 246 305 82 81 98 105 108 118 143 216 189 165 116 46 354 346 351 345 349 348 348 350 354 350 346 342 338 338 335 339 332
183 274 332 57 333 62 182 213 199 117 18 33 197 60 282 136 131 118 122 145 171 182 201 175 150 74 21 338 347 345 351 353 352 354 356 355 354 351 345 340 331 333 330 326
255 330 342 334 17 23 53 23 23 13 354 266 285 245 241 184 180 169 159 160 188 187 188 168 145 75 352 335 336 350 353 355 353 355 354 344 342 338 336 333 336 326 325 319
16 119 299 37 15 291 3 22 30 109 99 188 250 261 338 197 149 144 149 160 185 192 178 160 127 39 336 338 346 353 353 350 353 355 353 346 342 338 334 332 324 320 317 316
12 129 62 68 79 44 92 137 117 123 338 237 244 273 349 19 101 159 184 190 184 164 145 120 27 330 352 347 348 353 344 345 350 351 352 348 334 330 335 332 323 326 322 321
13 11 77 12 352 355 50 359 88 86 66 263 144 276 147 176 176 130 144 150 138 130 150 102 27 341 348 348 354 347 343 342 347 349 347 347 336 331 336 338 332 330 336 332
99 48 130 166 134 184 7 347 306 113 98 249 9 75 34 72 96 96 102 110 148 148 130 17 3 344 344 354 355 347 341 341 347 346 347 347 341 340 344 345 343 338 339 333
89 73 89 80 88 70 27 17 1 206 230 101 101 78 47 74 78 108 140 145 123 69 355 7 349 351 359 351 344 339 334 343 344 345 348 356 359 353 345 343 341 336 341 341
49 137 95 56 52 55 46 20 37 45 77 96 101 77 115 117 117 91 63 30 146 25 9 14 55 32 342 321 324 327 337 338 344 349 350 358 358 351 348 344 340 341 341 344
96 146 113 95 315 336 11 310 336 71 48 114 99 194 136 94 95 87 121 120 61 87 66 98 78 359 322 325 340 346 334 335 343 350 356 359 356 354 348 343 344 344 342 344
129 101 76 111 3 349 237 289 244 107 53 74 107 154 160 166 92 57 61 95 98 108 109 76 359 338 335 332 327 318 326 337 338 352 1 359 356 348 343 1 360 350 343 349
119 114 89 121 189 274 317 197 192 159 339 349 147 170 180 142 96 51 63 76 78 67 40 1 333 333 335 340 335 328 333 347 343 358 359 355 353 344 348 350 352 355 346 352
79 71 104 112 193 203 239 265 219 94 309 6 46 184 194 172 87 75 48 40 29 7 4 352 3 11 9 6 359 12 4 350 357 355 355 352 347 339 344 346 345 348 348 355
34 29 115 127 223 286 248 193 129 171 242 304 259 137 138 97 104 124 47 38 19 21 7 18 30 27 20 11 27 14 357 13 1 355 3 357 353 357 348 340 340 346 346 352
160 126 159 87 61 303 322 104 146 163 99 117 109 113 107 110 103 87 77 44 38 34 26 24 28 33 24 18 18 10 13 5 358 353 13 15 11 1 353 347 351 349 355 2
49 155 161 158 213 272 73 100 122 136 121 110 106 113 107 129 114 103 86 62 53 36 23 31 33 31 37 27 22 20 10 348 343 356 5 16 25 27 22 19 20 15 13 11
5 110 92 79 359 93 107 109 114 116 110 102 113 118 113 113 110 96 70 56 45 36 31 25 34 32 36 32 25 24 13 12 4 5 12 24 28 28 29 28 30 27 18 13
165 108 129 70 115 86 95 119 122 116 120 112 103 103 105 103 97 80 67 54 39 33 29 26 37 34 34 32 28 24 26 23 35 34 31 26 22 24 31 37 33 30 29 19
164 155 137 201 175 124 138 136 127 117 112 112 112 107 93 78 80 72 66 49 35 31 29 33 38 36 31 33 32 28 30 30 34 34 33 32 30 29 29 32 41 40 38 33